Weather History for Bierset, Belgium

Change the Weather History Date:

Tuesday, October 16, 2012

  Actual Average Record
Temperature  
Mean Temperature 49 °F -  
Max Temperature 53 °F 51 °F - ()
Min Temperature 45 °F 41 °F - ()
Degree Days  
Heating Degree Days 16    
Moisture  
Dew Point 44 °F    
Average Humidity 84    
Maximum Humidity 93    
Minimum Humidity 71    
Precipitation  
Precipitation 0.04 in - - ()
Sea Level Pressure  
Sea Level Pressure 29.74 in    
Wind  
Wind Speed 14 mph ()    
Max Wind Speed 21 mph    
Max Gust Speed 33 mph    
Visibility 8.2 miles    
Events Rain    
T = Trace of Precipitation, MM = Missing Value Source: Averaged Metar Reports

Daily Weather History Graph

Daily Weather History Graph

Search for Another Location

Airport:

Trip Planner

Search our weather history database for the weather conditions in past years. The results will help you decide how hot, cold, wet, or windy it might be!

Date:

Astronomy

Oct. 16, 2012 Rise Set
Actual Time 8:03 AM CEST 6:43 PM CEST
Civil Twilight 7:29 AM CEST 7:16 PM CEST
Nautical Twilight 6:51 AM CEST 7:54 PM CEST
Astronomical Twilight 6:13 AM CEST 8:32 PM CEST
Moon 9:18 AM CEST (10/16) 7:01 PM CEST (10/16)
Length of Visible Light 11h 46m
Length of Day
10h 40m
New Moon, 1% of the Moon is Illuminated
Oct 16
New Moon
Oct 22
First Quarter
Oct 29
Full
Nov 7
Last Quarter
Nov 13
New

Hourly Weather History & Observations

Time (CEST) Temp. Windchill Dew Point Humidity Pressure Visibility Wind Dir Wind Speed Gust Speed Precip Events Conditions
12:20 AM 46.4 °F 40.4 °F 42.8 °F 87% 29.77 in - South 13.8 mph - N/A   Clear
12:50 AM 46.4 °F 40.4 °F 42.8 °F 87% 29.77 in - South 13.8 mph - N/A   Clear
1:20 AM 46.4 °F 40.1 °F 41.0 °F 81% 29.77 in - South 15.0 mph - N/A   Clear
1:50 AM 46.4 °F 39.5 °F 42.8 °F 87% 29.77 in - South 17.3 mph - N/A   Clear
2:00 AM 47 °F - 42 °F 76% 29.79 in 19 mi South 17.9 mph - -   Scattered Clouds
2:20 AM 46.4 °F 40.4 °F 41.0 °F 81% 29.77 in - South 13.8 mph - N/A   Clear
2:50 AM 46.4 °F 40.1 °F 41.0 °F 81% 29.77 in - South 15.0 mph - N/A   Clear
3:20 AM 46.4 °F 40.4 °F 41.0 °F 81% 29.74 in - South 13.8 mph - N/A   Clear
3:50 AM 46.4 °F 40.1 °F 41.0 °F 81% 29.74 in - South 15.0 mph - N/A   Clear
4:20 AM 46.4 °F 40.1 °F 41.0 °F 81% 29.74 in - South 15.0 mph - N/A   Clear
4:50 AM 46.4 °F 39.8 °F 41.0 °F 81% 29.71 in - South 16.1 mph - N/A   Clear
5:00 AM 46 °F - 41 °F 77% 29.75 in 19 mi South 15.7 mph - -   Clear
5:20 AM 44.6 °F 37.8 °F 41.0 °F 87% 29.71 in - South 15.0 mph - N/A   Clear
5:50 AM 44.6 °F 38.1 °F 41.0 °F 87% 29.71 in - South 13.8 mph - N/A   Clear
6:20 AM 44.6 °F 37.8 °F 41.0 °F 87% 29.68 in - South 15.0 mph - N/A   Clear
6:50 AM 46.4 °F 39.5 °F 41.0 °F 81% 29.68 in - South 17.3 mph - N/A   Clear
7:20 AM 46.4 °F 39.5 °F 41.0 °F 81% 29.68 in - South 17.3 mph - N/A   Clear
7:50 AM 46.4 °F 39.5 °F 41.0 °F 81% 29.68 in 6.2 mi South 17.3 mph - N/A Rain Light Rain
8:00 AM 47 °F - 40 °F 71% 29.69 in 19 mi South 17.9 mph - - Rain Light Rain
8:20 AM 46.4 °F 39.5 °F 41.0 °F 81% 29.68 in - South 17.3 mph - N/A   Clear
8:50 AM 46.4 °F 39.8 °F 41.0 °F 81% 29.68 in - South 16.1 mph - N/A   Clear
9:20 AM 46.4 °F 39.8 °F 42.8 °F 87% 29.68 in 4.3 mi South 16.1 mph - N/A Rain Light Rain
9:50 AM 46.4 °F 38.7 °F 42.8 °F 87% 29.65 in 6.2 mi South 20.7 mph - N/A Rain Light Rain
10:20 AM 46.4 °F 39.5 °F 42.8 °F 87% 29.65 in 6.2 mi South 17.3 mph - N/A   Mostly Cloudy
10:50 AM 46.4 °F 39.5 °F 42.8 °F 87% 29.68 in 3.1 mi South 17.3 mph - N/A Rain Light Rain
11:00 AM 47 °F - 44 °F 83% 29.70 in 3 mi South 17.9 mph - - Rain Light Rain
11:20 AM 48.2 °F - 44.6 °F 87% 29.68 in 6.2 mi South 18.4 mph - N/A Rain Light Rain
11:50 AM 48.2 °F - 44.6 °F 87% 29.68 in 3.7 mi SSW 20.7 mph 33.4 mph N/A Rain Light Rain
12:20 PM 46.4 °F 39.0 °F 44.6 °F 93% 29.71 in 3.1 mi SSW 19.6 mph - N/A Rain Light Rain
12:50 PM 48.2 °F - 44.6 °F 87% 29.71 in 4.3 mi SSW 18.4 mph - N/A   Light Drizzle
1:20 PM 48.2 °F - 46.4 °F 93% 29.71 in 6.2 mi SSW 19.6 mph - N/A   Mostly Cloudy
1:50 PM 50.0 °F - 46.4 °F 87% 29.71 in 6.2 mi SSW 18.4 mph - N/A   Scattered Clouds
2:00 PM 49 °F - 46 °F 86% 29.74 in 19 mi SSW 17.9 mph - - Rain Light Drizzle
2:20 PM 50.0 °F - 46.4 °F 87% 29.74 in 6.2 mi SSW 18.4 mph - N/A   Scattered Clouds
2:50 PM 51.8 °F - 46.4 °F 82% 29.74 in 6.2 mi SSW 16.1 mph - N/A   Partly Cloudy
3:20 PM 51.8 °F - 46.4 °F 82% 29.74 in 6.2 mi SSW 18.4 mph - N/A   Partly Cloudy
3:50 PM 53.6 °F - 46.4 °F 77% 29.74 in 6.2 mi SSW 16.1 mph - N/A   Partly Cloudy
4:20 PM 53.6 °F - 46.4 °F 77% 29.74 in 6.2 mi South 13.8 mph - N/A   Partly Cloudy
4:50 PM 53.6 °F - 46.4 °F 77% 29.74 in 6.2 mi SSW 15.0 mph - N/A   Mostly Cloudy
5:00 PM 53 °F - 47 °F 75% 29.75 in 19 mi SSW 15.7 mph - -   Mostly Cloudy
5:20 PM 51.8 °F - 46.4 °F 82% 29.74 in 6.2 mi SSW 15.0 mph - N/A   Partly Cloudy
5:50 PM 51.8 °F - 48.2 °F 88% 29.74 in 6.2 mi SSW 13.8 mph - N/A   Partly Cloudy
6:20 PM 51.8 °F - 46.4 °F 82% 29.77 in 6.2 mi SSW 12.7 mph - N/A   Partly Cloudy
6:50 PM 51.8 °F - 46.4 °F 82% 29.77 in - SSW 10.4 mph - N/A   Clear
7:20 PM 50.0 °F - 46.4 °F 87% 29.77 in - South 9.2 mph - N/A   Clear
7:50 PM 50.0 °F - 46.4 °F 87% 29.80 in - SSW 13.8 mph - N/A   Clear
8:00 PM 50 °F - 46 °F 83% 29.81 in 19 mi SSW 13.4 mph - -   Scattered Clouds
8:20 PM 50.0 °F - 46.4 °F 87% 29.80 in 6.2 mi SSW 12.7 mph - N/A   Partly Cloudy
8:50 PM 50.0 °F - 46.4 °F 87% 29.80 in 6.2 mi SSW 12.7 mph - N/A   Partly Cloudy
9:20 PM 48.2 °F - 44.6 °F 87% 29.83 in 6.2 mi South 11.5 mph - N/A   Partly Cloudy
9:50 PM 48.2 °F - 44.6 °F 87% 29.83 in - South 12.7 mph - N/A   Clear
10:20 PM 48.2 °F - 44.6 °F 87% 29.83 in - South 12.7 mph - N/A   Clear
10:50 PM 48.2 °F - 44.6 °F 87% 29.83 in - South 10.4 mph - N/A   Clear
11:00 PM 48 °F - 45 °F 86% 29.85 in 7 mi South 11.2 mph - -  
11:20 PM 48.2 °F - 44.6 °F 87% 29.83 in - South 13.8 mph - N/A   Clear
11:50 PM 48.2 °F - 44.6 °F 87% 29.83 in - South 11.5 mph - N/A   Clear